sat.trackr.live / text

‹ back to catalog

STARLINK-34926

NORAD 65194 · 2025-175W

PAYLOAD ACTIVE UNKNOWN

§ Identity

Operator
Country
US
Launch date
2025-08-14
Launch site
AFWTR
Launch vehicle
Mass (kg)
RCS (m²)

Purposes: comms

External: N2YO · Heavens-Above · Gunter

§ Orbital elements

Epoch: 2026-09-20T21:52:01.876512Z

Period
93.91 min
Inclination
97.2849°
Eccentricity
0.0001743
Mean motion
15.33440889 rev/d
Perigee alt
464.4 km
Apogee alt
466.7 km
Semi-major
6,843.7 km
B*
3.1294e-5
RAAN
132.8596°
Arg perigee
88.2351°
Mean anomaly
271.9092°
Rev number
6,216

§ Raw data

STARLINK-349261 65194U 25175W   26263.91113283  .00000935  00000+0  31294-4 0  99912 65194  97.2849 132.8596 0001743  88.2351 271.9092 15.33440889 62162

JSON: /api/v1/satellites/65194 · /tle

For live sub-satellite position, see the globe view (requires WebGL).

§ Visibility from observer

Set your observer location to see the next 7 days of passes ≥ 10°. The values pass through the URL so the page stays shareable.

No JS? Fill the form by hand. The geolocation button needs JavaScript.